GPS BIIR-5 (PRN 22) 1 26407U 00040A 26237.16727508 .00000034 00000+0 00000+0 0 9994 2 26407 54.8430 212.4235 0119130 303.3970 106.3085 2.00558236191335 GPS BIIR-8 (PRN 16) 1 27663U 03005A 26236.92564483 .00000035 00000+0 00000+0 0 9998 2 27663 54.8730 212.2390 0149503 53.4372 317.9937 2.00556901172690 GPS BIIR-11 (PRN 19) 1 28190U 04009A 26235.20461462 .00000024 00000+0 00000+0 0 9990 2 28190 54.7772 272.9743 0118233 175.9321 184.6696 2.00552466164296 GPS BIIR-13 (PRN 02) 1 28474U 04045A 26237.10316825 -.00000074 00000+0 00000+0 0 9994 2 28474 55.0910 322.1184 0171248 318.0774 39.0116 2.00559067159808 GPS BIIRM-1 (PRN 17) 1 28874U 05038A 26237.15426346 .00000033 00000+0 00000+0 0 9990 2 28874 54.8256 270.3886 0128671 297.0746 62.2797 2.00561053153223 GPS BIIRM-2 (PRN 31) 1 29486U 06042A 26236.81217884 -.00000023 00000+0 00000+0 0 9993 2 29486 54.7140 148.6137 0108298 56.4515 315.6070 2.00566202145775 GPS BIIRM-3 (PRN 12) 1 29601U 06052A 26237.22332159 .00000033 00000+0 00000+0 0 9992 2 29601 54.9274 211.2709 0085080 91.0999 269.8566 2.00561942144797 GPS BIIRM-4 (PRN 15) 1 32260U 07047A 26237.53065025 .00000007 00000+0 00000+0 0 9992 2 32260 54.1494 77.2082 0168805 88.9947 273.0235 2.00552368138208 GPS BIIRM-5 (PRN 29) 1 32384U 07062A 26237.59218340 .00000031 00000+0 00000+0 0 9999 2 32384 54.9799 271.3572 0036101 169.5585 4.2214 2.00564012136904 GPS BIIRM-6 (PRN 07) 1 32711U 08012A 26236.94010185 -.00000022 00000+0 00000+0 0 9995 2 32711 54.5020 147.1776 0211283 248.4033 109.3572 2.00551870135134 GPS BIIRM-8 (PRN 05) 1 35752U 09043A 26237.48583191 -.00000064 00000+0 00000+0 0 9996 2 35752 56.2523 24.7350 0052171 85.5349 316.9714 2.00578088124756 GPS BIIF-1 (PRN 25) 1 36585U 10022A 26237.37789501 .00000024 00000+0 00000+0 0 9996 2 36585 54.2643 205.7763 0128143 66.2989 18.6398 2.00565810118981 GPS BIIF-3 (PRN 24) 1 38833U 12053A 26237.11892174 -.00000019 00000+0 00000+0 0 9998 2 38833 53.5937 140.7740 0184328 66.9656 295.0012 2.00556752100828 GPS BIIF-4 (PRN 27) 1 39166U 13023A 26236.98707029 .00000038 00000+0 00000+0 0 9994 2 39166 54.4549 266.1660 0141798 51.1237 310.2036 2.00563355 97262 GPS BIIF-5 (PRN 30) 1 39533U 14008A 26236.98887493 -.00000022 00000+0 00000+0 0 9994 2 39533 53.6605 146.5125 0083767 231.6217 127.6472 2.00564347 91063 GPS BIIF-6 (PRN 06) 1 39741U 14026A 26237.26665605 -.00000081 00000+0 00000+0 0 9991 2 39741 56.4595 328.8274 0038776 324.5632 35.2239 2.00556124 89927 GPS BIIF-7 (PRN 09) 1 40105U 14045A 26235.86147510 -.00000003 00000+0 00000+0 0 9996 2 40105 55.3999 85.7686 0035860 119.2710 241.1709 2.00563160 87434 GPS BIIF-8 (PRN 03) 1 40294U 14068A 26235.73142701 -.00000059 00000+0 00000+0 0 9994 2 40294 57.0329 28.3576 0067347 73.4455 287.3109 2.00556001 86567 GPS BIIF-9 (PRN 26) 1 40534U 15013A 26235.86868390 .00000022 00000+0 00000+0 0 9994 2 40534 53.1614 201.3798 0111734 40.6436 320.1595 2.00572087 83184 GPS BIIF-10 (PRN 08) 1 40730U 15033A 26237.02784517 .00000039 00000+0 00000+0 0 9990 2 40730 53.9336 264.2435 0116405 30.4007 330.3375 2.00552779 81372 GPS BIIF-11 (PRN 10) 1 41019U 15062A 26236.58195723 -.00000058 00000+0 00000+0 0 9990 2 41019 57.0046 28.1814 0114759 230.8830 128.1086 2.00567296 79205 GPS BIIF-12 (PRN 32) 1 41328U 16007A 26235.67440888 -.00000004 00000+0 00000+0 0 9998 2 41328 55.5685 86.7836 0097068 247.3476 111.7037 2.00574118 77197 GPS BIII-1 (PRN 04) 1 43873U 18109A 26237.56432360 .00000016 00000+0 00000+0 0 9998 2 43873 55.7256 89.4491 0039669 196.3503 341.0855 2.00564692 56463 GPS BIII-2 (PRN 18) 1 44506U 19056A 26237.49286138 -.00000080 00000+0 00000+0 0 9998 2 44506 55.5985 328.3877 0065213 199.3522 191.7388 2.00571120 51465 GPS BIII-3 (PRN 23) 1 45854U 20041A 26237.01795870 -.00000061 00000+0 00000+0 0 9996 2 45854 56.7136 26.2778 0067247 205.0351 138.2683 2.00557164 45415 GPS BIII-4 (PRN 14) 1 46826U 20078A 26237.18871970 .00000027 00000+0 00000+0 0 9991 2 46826 53.9723 207.9816 0075658 208.2637 237.2350 2.00565261 42891 GPS BIII-5 (PRN 11) 1 48859U 21054A 26235.85355711 -.00000093 00000+0 00000+0 0 9990 2 48859 55.1371 329.7390 0027847 229.6273 158.0136 2.00565103 38119 GPS BIII-6 (PRN 28) 1 55268U 23009A 26235.99305556 -.00000030 00000+0 00000+0 0 9992 2 55268 55.1261 145.8532 0005894 327.0864 200.4351 2.00567400 26605 GPS BIII-7 (PRN 01) 1 62339U 24242A 26237.16296324 -.00000087 00000+0 00000+0 0 9994 2 62339 54.8147 331.3847 0018676 2.1838 12.9479 2.00573425 12646 GPS BIII-8 (PRN 21) 1 64202U 25116A 26236.88772132 -.00000061 00000+0 00000+0 0 9992 2 64202 55.2808 28.3707 0008623 338.0423 21.3904 2.00571165 9244 GPS BIII-9 (PRN 20) 1 67588U 26017A 26236.99903973 .00000009 00000+0 00000+0 0 9995 2 67588 55.1349 85.9934 0020833 262.1762 97.6738 2.00569596432992 GPS BIII-10 (PRN 13) 1 68791U 26087A 26236.90520219 .00000026 00000+0 00000+0 0 9997 2 68791 54.9585 205.0717 0020814 104.4751 34.0243 2.00576182 2210